User: anonymous   Login
Location: Berg
(48.5667°N, 13.9833°E)
Time: 12:28:49
(UTC+00:00)
Language:

STARLINK-1205 - Orbit

View from above orbital plane
View from above orbital plane
View from above satellite
View from above satellite

Ground track
Ground track

The orbit data is extracted from the following two-line orbital elements,

1 45184U 20012G   20190.91667824 -.00012377  00000-0 -83143-3 0  9996
2 45184  53.0004 318.1855 0001265 105.2097 270.4340 15.05594581 22495
Epoch (UTC): 08 July 2020 22:00:01
Eccentricity: 0.0001265
inclination: 53.0004°
perigee height: 549 km
apogee height: 550 km
right ascension of ascending node: 318.1855°
argument of perigee: 105.2097°
revolutions per day: 15.05594581
mean anomaly at epoch: 270.4340°
orbit number at epoch: 2249

The dashed part of the orbit path shows where the satellite is in the earth's shadow,  

DLR